SCP
0 0 0 0 0 0 0 0 0 0 0 0 0 0 0 0 0 0 0 0 0 0 0 0 0 0 0 0 0 0 0 0 0 0 0 0 0 0 0 0 0 0 0
0 0 0 0 0 0 0 0 0 0 0 0 0 0 0 0 0 0 0 0 0 0 0 0 0 0 0 0 0 0 0 0 0 0 0 0 0 0 0 0 0 0 0
0 0 0 0 0 0 0 0 0 0 0 0 0 0 0 0 0 0 0 0 0 0 0 0 0 0 0 0 0 0 0 0 0 0 0 0 0 0 0 0 0 0 0
0 0 0 0 0 0 0 0 0 0 0 0 0 0 0 0 0 0 0 0 0 0 0 0 0 0 0 0 0 0 0 0 0 0 0 0 0 0 0 0 0 0 0
0 0 0 0 0 0 0 0 0 0 0 0 0 0 0 0 0 0 0 0 0 0 0 0 0 0 0 0 0 0 0 0 0 0 0 0 0 0 0 0 0 0 0
0 0 0 0 0 0 0 0 0 0 0 0 0 0 0 0 0 0 0 0 0 0 0 0 0 0 0 0 0 0 0 0 0 0 0 0 0 0 0 0 0 0 0
0 0 0 0 0 0 0 0 0 0 0 0 0 0 0 0 0 0 0 0 0 0 0 0 0 0 0 0 0 0 0 0 0 0 0 0 0 0 0 0 0 0 0
0 0 0 0 0 0 0 0 0 0 0 0 0 0 0 0 0 0 0 0 0 0 0 0 0 0 0 0 0 0 0 0 0 0 0 0 0 0 0 0 0 0 0
0 0 0 0 0 0 0 0 0 0 0 0 0 0 0 0 0 0 0 0 0 0 0 0 0 0 0 0 0 0 0 0 0 0 0 0 0 0 0 0 0 0 0
0 0 0 0 0 0 0 0 0 0 0 0 0 0 0 0 0 0 0 0 0 0 0 0 0 0 0 0 0 0 0 0 0 0 0 0 0 0 0 0 0 0 0
0 0 0 0 0 0 0 0 0 0 0 0 0 0 0 0 0 0 0 0 0 0 0 0 0 0 0 0 0 0 0 0 0 0 0 0 0 0 0 0 0 0 0
0 0 0 0 0 0 0 0 0 0 0 0 0 0 0 0 0 0 0 0 0 0 0 0 0 0 0 0 0 0 0 0 0 0 0 0 0 0 0 0 0 0 0
0 0 0 0 0 0 0 0 0 0 0 0 0 0 0 0 0 0 0 0 0 0 0 0 0 0 0 0 0 0 0 0 0 0 0 0 0 0 0 0 0 0 0
0 0 0 0 0 0 0 0 0 0 0 0 0 0 0 0 0 0 0 0 0 0 0 0 0 0 0 0 0 0 0 0 0 0 0 0 0 0 0 0 0 0 0
0 0 0 0 0 0 0 0 0 0 0 0 0 0 0 0 0 0 0 0 0 0 0 0 0 0 0 0 0 0 0 0 0 0 0 0 0 0 0 0 0 0 0
0 0 0 0 0 0 0 0 0 0 0 0 0 0 0 0 0 0 0 0 0 0 0 0 0 0 0 0 0 0 0 0 0 0 0 0 0 0 0 0 0 0 0
0 0 0 0 0 0 0 0 0 0 0 0 0 0 0 0 0 0 0 0 0 0 0 0 0 0 0 0 0 0 0 0 0 0 0 0 0 0 0 0 0 0 0
0 0 0 0 0 0 0 0 0 0 0 0 0 0 0 0 0 0 0 0 0 0 0 0 0 0 0 0 0 0 0 0 0 0 0 0 0 0 0 0 0 0 0
0 0 0 0 0 0 0 0 0 0 0 0 0 0 0 0 0 0 0 0 0 0 0 0 0 0 0 0 0 0 0 0 0 0 0 0 0 0 0 0 0 0 0
0 0 0 0 0 0 0 0 0 0 0 0 0 0 0 0 0 0 0 0 0 0 0 0 0 0 0 0 0 0 0 0 0 0 0 0 0 0 0 0 0 0 0
0 0 0 0 0 0 0 0 0 0 0 0 0 0 0 0 0 0 0 0 0 0 0 0 0 0 0 0 0 0 0 0 0 0 0 0 0 0 0 0 0 0 0
0 0 0 0 0 0 0 0 0 0 0 0 0 0 0 0 0 0 0 0 0 0 0 0 0 0 0 0 0 0 0 0 0 0 0 0 0 0 0 0 0 0 0
0 0 0 0 0 0 0 0 0 0 0 0 0 0 0 0 0 0 0 0 0 0 0 0 0 0 0 0 0 0 0 0 0 0 0 0 0 0 0 0 0 0 0
0 0 0 0 0 0 0 0 0 0 0 0 0 0 0 0 0 0 0 0 0 0 0 0 0 0 0 0 0 0 0 0 0 0 0 0 0 0 0 0 0 0 0
0 0 0 0 0 0 0 0 0 0 0 0 0 0 0 0 0 0 0 0 0 0 0 0 0 0 0 0 0 0 0 0 0 0 0 0 0 0 0 0 0 -0 -0
0 0 0 0 0 0 0 0 0 0 0 0 0 0 0 0 0 0 0 0 0 0 0 0 0 0 0 0 0 0 0 0 0 0 0 0 0 0 0 0 -0 -0 -0
Wind_Speed
9 11 11 11 11 10 11 11 12 12 12 12 12 12 13 15 15 16 16 16 17 17 17 17 16 16 16 15 15 14 13 12 11 12 15 17 17 18 18 18 14 11 16
11 12 10 10 10 10 10 11 11 11 11 12 12 12 13 14 15 16 16 16 16 17 17 16 16 16 15 15 14 13 12 10 9 8 8 13 16 17 17 17 16 11 17
11 12 9 9 10 10 10 10 10 10 11 11 11 11 12 13 14 15 16 16 16 17 16 16 16 16 15 14 14 13 11 10 11 10 5 6 10 16 16 16 16 16 16
10 11 9 9 10 10 9 9 9 10 10 10 10 10 11 13 14 15 16 16 16 16 16 16 16 15 15 14 13 13 12 12 13 12 6 9 8 14 15 15 15 15 15
7 9 11 9 9 10 9 8 8 9 9 9 9 9 10 12 14 15 15 16 16 16 16 16 16 15 15 14 13 12 12 13 13 9 7 9 7 13 14 14 13 13 14
7 10 10 8 8 9 8 8 8 8 8 8 8 8 9 11 13 14 15 16 16 16 16 16 16 16 15 15 14 13 13 14 10 6 10 10 7 13 14 13 12 12 12
7 7 8 6 6 8 8 8 8 8 8 8 7 8 8 10 11 13 14 15 15 15 15 15 15 15 15 15 14 14 15 16 8 7 10 9 9 13 14 14 13 12 12
8 7 6 5 4 5 7 7 8 8 7 7 7 7 7 8 10 12 13 14 14 14 14 14 14 14 14 14 13 13 13 13 9 9 10 9 13 13 13 13 13 12 12
7 6 5 3 1 3 4 5 6 7 6 6 6 6 6 7 9 10 11 12 13 12 12 13 13 13 13 13 12 12 12 13 8 7 10 7 13 14 13 12 12 12 11
6 6 5 4 2 0 3 5 5 5 5 5 5 5 6 7 8 9 9 10 11 11 11 11 11 11 11 12 11 10 11 9 7 8 6 8 14 14 13 13 12 11 11
6 5 5 5 4 3 1 4 5 5 4 4 4 6 5 4 6 6 8 9 9 9 9 10 8 7 7 8 8 8 7 4 5 5 5 10 14 13 13 13 12 11 10
6 5 4 4 3 3 2 1 2 3 3 2 2 4 3 2 4 6 9 8 8 7 8 8 5 3 3 3 4 6 3 5 4 4 4 11 12 13 13 13 13 13 11
6 6 6 5 2 1 1 1 1 2 3 4 5 4 3 4 4 5 4 4 4 4 3 4 2 3 4 3 3 3 4 4 3 3 4 9 10 11 12 12 13 13 13
7 7 7 6 2 0 2 3 4 5 5 5 7 7 5 4 5 5 4 4 3 2 3 3 3 4 4 4 4 4 4 3 3 2 2 6 9 11 12 12 13 13 14
6 7 7 6 3 3 5 6 7 7 7 7 6 7 7 6 6 6 5 5 5 4 4 4 4 4 4 4 4 4 4 4 4 3 2 3 7 11 13 14 14 14 14
6 6 7 7 7 8 8 8 7 7 7 7 8 9 9 7 7 7 7 6 5 5 4 4 4 3 3 3 3 4 4 4 4 5 4 4 6 10 14 15 16 16 15
5 5 6 7 9 10 11 10 8 7 8 8 8 9 10 8 8 7 7 6 5 5 5 5 5 4 4 4 4 3 3 3 4 5 5 5 6 9 14 16 17 17 17
4 5 6 6 9 10 10 9 8 8 8 7 7 8 10 10 9 8 7 6 6 5 5 5 5 4 5 4 3 3 3 3 5 6 6 6 6 6 10 17 18 18 18
4 5 7 7 9 10 10 10 10 9 9 8 7 7 9 10 10 8 7 7 6 6 6 5 5 5 5 5 4 3 2 4 5 6 6 7 6 6 6 12 16 17 19
5 6 7 8 8 8 8 9 8 10 9 8 7 8 9 9 9 8 8 9 7 7 7 6 6 6 5 5 4 3 2 5 4 5 5 5 6 8 8 8 7 10 18
5 6 6 7 6 5 5 5 6 6 6 7 7 9 10 9 9 8 7 8 7 8 8 8 5 6 7 6 5 4 4 5 6 4 4 5 7 8 8 8 6 6 8
6 5 6 5 5 5 5 5 6 6 6 6 6 8 9 9 9 9 8 7 7 7 9 9 7 5 6 8 5 3 4 4 6 3 4 5 6 5 6 7 7 8 7
6 5 5 6 7 8 8 8 8 6 5 5 6 6 7 8 9 8 8 7 7 7 6 7 7 7 5 6 6 5 4 3 4 4 4 5 7 6 5 6 7 7 8
6 6 6 7 8 8 8 7 8 7 7 5 5 5 7 8 8 8 8 8 7 6 7 7 7 5 5 4 4 4 3 1 2 5 4 5 7 7 7 8 8 7 7
7 6 6 6 7 7 7 8 10 10 9 7 6 7 7 6 7 7 7 7 7 6 6 7 6 7 5 4 4 3 3 3 4 2 5 6 5 5 6 7 7 6 6
7 6 6 7 7 7 8 9 10 12 11 10 8 7 5 4 5 6 7 6 6 5 6 5 5 6 5 5 4 3 3 3 3 3 4 7 7 5 8 6 5 6 6
Wind_Direction
113 122 129 122 114 108 103 101 99 97 94 93 91 88 86 86 83 79 75 71 67 62 57 52 48 45 43 42 44 47 47 46 50 58 64 60 54 51 47 42 42 43 48
116 124 129 124 119 111 105 103 101 99 97 94 91 88 88 88 85 80 76 71 67 62 57 52 47 43 40 38 39 41 39 28 19 26 58 66 57 51 48 45 43 44 46
113 124 129 122 119 113 109 105 104 102 99 95 92 89 88 90 87 82 77 71 66 61 56 52 47 42 38 36 35 35 29 11 356 352 4 82 59 51 48 45 43 43 43
117 130 132 124 119 113 109 108 107 105 102 98 93 90 91 93 90 85 80 73 68 62 56 52 48 43 39 37 35 32 21 1 348 342 45 66 53 48 45 44 44 43 42
102 118 120 126 123 118 115 114 113 111 107 103 98 94 95 98 95 89 83 77 72 66 59 53 49 45 41 40 38 32 17 0 344 339 47 65 49 41 41 41 43 44 41
88 105 117 123 126 128 128 126 124 122 119 115 109 104 102 103 101 96 90 84 77 70 63 57 52 48 44 42 39 30 17 360 348 28 53 52 38 36 37 37 37 39 39
59 81 113 105 120 134 138 139 138 136 134 130 123 117 113 112 111 105 99 92 85 78 70 63 57 52 49 45 39 29 18 4 8 42 59 43 26 34 36 33 32 33 34
48 54 81 80 104 130 148 152 151 149 149 146 140 132 127 124 122 116 109 103 96 88 79 70 63 58 54 49 41 30 19 9 16 40 58 35 19 28 34 31 29 29 29
49 45 45 53 111 145 154 161 161 160 159 158 153 144 138 134 131 126 120 114 108 99 89 79 70 64 59 53 45 31 14 10 27 41 50 29 17 21 28 28 26 24 23
58 39 29 23 6 189 174 168 160 157 158 160 159 156 153 148 138 134 130 126 120 112 100 89 78 72 65 58 48 31 19 26 35 50 44 21 19 18 19 21 20 20 20
63 42 23 6 1 344 331 155 160 159 163 167 169 172 168 170 154 143 135 132 127 118 105 94 82 80 79 65 47 31 32 24 42 63 45 22 21 17 15 13 12 12 14
46 40 20 359 356 340 347 122 160 155 149 158 141 165 172 143 125 125 128 123 116 111 102 91 78 60 47 56 45 37 23 30 38 67 50 31 22 18 15 11 7 6 6
30 28 10 347 328 315 344 40 60 80 74 56 47 55 80 86 95 100 108 105 95 96 88 84 57 46 55 46 38 39 29 35 33 52 59 35 23 17 14 11 6 4 3
29 16 357 333 312 102 69 65 60 65 61 53 43 41 56 69 71 79 82 79 69 60 62 56 44 44 48 49 40 30 32 33 29 35 74 44 26 17 14 11 8 5 1
28 12 355 349 18 82 76 71 68 65 65 58 47 41 53 70 73 72 68 65 57 51 52 51 47 39 36 32 31 29 15 15 18 18 39 48 34 23 16 12 8 3 360
33 17 11 24 45 70 74 73 69 67 64 59 50 45 49 63 73 74 68 60 52 47 47 53 55 48 35 23 19 21 4 6 8 9 16 26 36 32 23 17 11 5 359
47 36 37 46 59 71 75 74 71 67 66 62 55 49 51 57 66 70 67 57 46 41 42 42 38 42 30 14 5 360 353 4 15 19 23 30 29 27 24 21 14 9 3
69 64 60 67 74 77 78 77 74 69 66 61 57 54 54 57 61 66 64 55 44 41 41 44 32 30 21 7 351 343 351 20 31 33 40 43 35 25 17 19 13 8 3
92 91 86 84 86 88 86 82 76 70 64 59 55 54 53 57 60 64 62 53 45 43 38 43 41 30 13 353 333 332 15 53 46 42 49 49 40 30 19 14 12 5 0
111 110 108 106 103 102 97 90 81 71 63 58 55 54 53 54 56 62 63 54 48 48 39 33 43 35 14 346 335 348 57 74 54 52 50 47 38 29 17 10 7 1 356
130 130 129 126 129 125 112 100 91 80 72 65 60 56 55 56 56 59 63 58 54 53 44 34 33 38 22 0 9 5 39 76 52 52 55 46 35 24 10 4 359 356 346
143 141 140 139 126 100 93 95 97 103 87 78 68 61 57 56 56 65 61 59 54 54 45 35 31 34 32 23 21 22 5 356 11 13 47 48 30 12 359 354 351 348 338
143 140 130 117 108 107 110 111 112 100 91 75 67 65 58 60 59 60 60 60 54 55 51 40 32 42 38 19 31 48 52 351 318 335 12 31 15 358 344 339 339 331 328
139 130 123 121 121 127 135 135 131 123 117 109 101 86 68 58 59 60 61 61 58 54 51 44 37 35 45 30 13 23 52 357 355 322 323 359 359 344 340 336 325 316 316
140 134 127 124 126 131 124 119 118 116 115 114 108 98 84 68 62 62 62 62 61 57 54 49 42 38 39 43 31 9 0 360 33 321 306 326 328 325 325 316 309 311 315
139 136 136 131 124 121 119 120 127 129 131 128 123 115 103 90 75 71 72 66 63 59 55 50 48 44 38 38 34 30 24 7 356 339 308 315 314 309 306 300 312 326 322